Terminal Aerodrome Forecast
Issued by NWS

Home | Current Version | Previous Version | Graphics & Text | Print | Product List | Glossary On
Versions: 1 2 3 4 5 6 7 8 9 10 11 12 13 14 15 16 17 18 19 20 21 22 23 24 25
000
FTUS43 KTOP 141605 AAD
TAFFOE
TAF AMD
KFOE 141605Z 1416/1512 18010KT P6SM OVC040
     FM142000 24007KT P6SM FEW040
     FM150400 25004KT 2SM -SN BKN030=

USA.gov is the U.S. government's official web portal to all federal, state and local government web resources and services.